Flag for U.S.A. Weather past 2 weeks in Norfolk, Virginia, U.S.A.

Now
50 °F

Mostly cloudy.


Feels Like: 45 °F
Forecast: 47 / 57 °F
Wind: 14 mph from Northeast

Location: Norfolk Naval Air Station

Current Time: Apr 26, 2015 at 4:24:22 AM

Latest Report: Apr 26, 2015 at 3:59 AM


Visibility: 10 mi

Pressure: 29.64 "Hg

Humidity: 80%

Dew point: 44 °F

Location of NorfolkLocation

Historic Weather in Norfolk — Graph

°F

Norfolk temperature yesterday

Maximum temperature yesterday: 57 °F (at 8:59 AM)
Minimum temperature yesterday: 48 °F (at 6:59 PM)
Average temperature yesterday: 52 °F

Past Weeks' High & Low Weather Summary

 TemperatureHumidityPressure
High83 °F (Apr 20, 3:59 PM)86% (Apr 14, 7:59 PM)30.41 "Hg (Apr 14, 7:59 PM)
Low48 °F (Apr 25, 6:59 PM)20% (Apr 24, 5:59 PM)29.64 "Hg (Apr 26, 2:59 AM)
Average65 °F57%30.03 "Hg
* Reported Apr 11 2:59 AM — Apr 26 2:59 AM, Norfolk, Weather by CustomWeather, © 2015

Note: Actual official high and low records may vary slightly from our data, if they occured in-between our weather recording intervals... More about our weather records

Advertising

Norfolk weather history for previous 24 hours

 ConditionsComfort  
Time TempWeatherWind HumidityBarometerVisibility
2:59 AM
Sun, Apr 26
51 °FLight rain. Overcast.13 mph80%29.64 "Hg6 mi
1:59 AM51 °FMostly cloudy.15 mph80%29.66 "Hg10 mi
12:59 AM51 °FLight rain. Mostly cloudy.14 mph83%29.67 "Hg8 mi
11:59 PM
Sat, Apr 25
51 °FLight rain. Mostly cloudy.14 mph83%29.69 "Hg3 mi
10:59 PM50 °FLight rain. Fog.14 mph86%29.71 "Hg3 mi
9:59 PM49 °FLight rain. Fog.14 mph86%29.68 "Hg4 mi
8:59 PM49 °FLight rain. Mostly cloudy.9 mph84%29.71 "Hg4 mi
7:59 PM48 °FLight rain. Cloudy.10 mph83%29.75 "Hg5 mi
6:59 PM48 °FLight rain. Fog.6 mph86%29.78 "Hg2 mi
5:59 PM49 °FLight rain. Mostly cloudy.10 mph84%29.80 "Hg2 mi
4:59 PM50 °FLight rain. Overcast.7 mph83%29.81 "Hg4 mi
3:59 PM51 °FLight rain. Mostly cloudy.7 mph80%29.83 "Hg4 mi
2:59 PM52 °FLight rain. Overcast.6 mph72%29.87 "Hg7 mi
1:59 PM53 °FLight rain. Overcast.8 mph66%29.89 "Hg8 mi
12:59 PM54 °FLight rain. Overcast.7 mph59%29.91 "Hg10 mi
11:59 AM54 °FLight rain. Cloudy.8 mph64%29.94 "Hg10 mi
10:59 AM53 °FLight rain. Mostly cloudy.8 mph66%29.96 "Hg10 mi
9:59 AM56 °FMostly cloudy.6 mph47%29.99 "Hg10 mi
8:59 AM57 °FMostly cloudy.10 mph49%29.96 "Hg10 mi
7:59 AM56 °FMostly cloudy.10 mph58%29.96 "Hg10 mi
6:59 AM50 °FMostly cloudy.No wind68%29.95 "Hg10 mi
5:59 AM50 °FPassing clouds.No wind66%29.95 "Hg10 mi
4:59 AM52 °FPassing clouds.3 mph59%29.94 "Hg10 mi
Weather by CustomWeather, © 2015

See weather overviewHow to use our weather pages